Weather Roundup
Issued by NWS Chicago, IL

Home | Current Version | Previous Version | Graphics & Text | Print | Product List | Glossary On
Versions: 1 2 3 4 5 6 7 8 9 10 11 12 13 14 15 16 17 18 19 20 21 22 23 24 25 26 27 28 29 30 31 32 33 34 35 36 37 38 39 40 41 42 43 44 45 46 47 48 49 50
000
NZUS59 KLOT 280321
HRRLOT

CHICAGO AREA WEATHER ROUNDUP
NATIONAL WEATHER SERVICE CHICAGO/ROMEOVILLE IL
1000 PM CDT WED MAY 27 2015

NOTE: "FAIR" INDICATES FEW OR NO CLOUDS BELOW 12,000 FEET WITH NO
SIGNIFICANT WEATHER AND/OR OBSTRUCTIONS TO VISIBILITY.

* THESE STATIONS ARE NOT UNDER NWS QUALITY CONTROL. THEY ALSO MAY NOT
  REPORT WEATHER SUCH AS PRECIPITATION OR FOG.

ILZ005-006-012>014-019>023-280400-
NORTHEAST ILLINOIS

CITY           SKY/WX    TMP DP  RH WIND       PRES   REMARKS
OHARE          CLEAR     65  54  67 E3        30.10R
MIDWAY         CLEAR     68  55  63 E5        30.11R
AURORA         CLEAR     61  55  81 CALM      30.12R
LANSING*       CLEAR     62  55  75 E3        30.13R
JOLIET*        CLEAR     63  58  85 CALM      30.12R
WAUKEGAN       CLEAR     57  55  93 S3        30.10R
DUPAGE AIRPORT CLEAR     61  56  83 CALM      30.11R
WHEELING       CLEAR     61  55  81 SE3       30.12R
KANKAKEE*      CLEAR     63  58  84 CALM      30.13R
MORRIS*        CLEAR     66  56  70 CALM      30.10R
LEWIS AIRPORT* CLEAR     64  55  72 S3        30.12R
NORTHERLY IS     N/A     60  54  80 CALM        N/A
$$

WIZ051-052-058>065-066-070>072-280400-
SOUTHEAST WISCONSIN

CITY           SKY/WX    TMP DP  RH WIND       PRES   REMARKS
MILWAUKEE      PTCLDY    61  55  81 S6        30.09R
KENOSHA*       CLEAR     60  55  83 S5        30.10R
RACINE*        CLEAR     60  53  77 S5        30.11R
BURLINGTON     CLEAR     58  56  94 CALM      30.11R
WAUKESHA       CLEAR     64  54  68 S5        30.10R
WEST BEND      CLEAR     63  55  77 CALM      30.08R
$$

INZ001>003-010>013-019-020-280400-
NORTHWEST INDIANA

CITY           SKY/WX    TMP DP  RH WIND       PRES   REMARKS
GARY*          CLEAR     59  57  94 CALM      30.12R
MICHIGAN CITY* NOT AVBL
RENSSELAER*    NOT AVBL
VALPARAISO     CLEAR     62  55  77 CALM      30.13R
$$

LMZ740>746-280400-
SOUTHERN LAKE MICHIGAN

STATION/POSITION TIME  SKY/WX   TEMP WIND        PRES    VSBY
                                AIR  DIR/SP/G
                 (UTC)          (F)  (DEG/KT/KT) (MB)    (MI)
HARRISON CRIB    0300            60  120/  4/  5   N/A
BURNHAM HARBOR   0300            60   CALM  /  2   N/A
CALUMET HARBOR   NOT AVBL
BURNS HARBOR     0200            62   80/  5/  6 1020.0R
MICHIGAN CITY    0300            59   40/  4/  4   N/A
$$

ABBREVIATIONS USED IN REMARKS
   TC - TEMPERATURE IN CELSIUS
  WCI - WIND CHILL INDEX
   HX - HEAT INDEX
  VSB - VISIBILITY
$$


USA.gov is the U.S. government's official web portal to all federal, state and local government web resources and services.